Flag for US Virgin Islands Weather past 2 weeks in Christiansted, US Virgin Islands

Now
84 °F

Partly cloudy.


Feels Like: 91 °F
Forecast: N/A
Wind: 17 mph from East

Location: Christiansted / Henry E. Rohlsen Airport - Saint Croix

Current Time: Aug 3, 2015 at 7:25:57 PM

Latest Report: Aug 3, 2015 at 6:53 PM


Visibility: 10 mi

Pressure: 29.99 "Hg

Humidity: 72%

Dew point: 74 °F

Location of ChristianstedLocation

Historic Weather in Christiansted — Graph

°F

Christiansted temperature yesterday

Maximum temperature yesterday: 89 °F (at 1:53 PM)
Minimum temperature yesterday: 74 °F (at 4:53 AM)
Average temperature yesterday: 83 °F

Past Weeks' High & Low Weather Summary

 TemperatureHumidityPressure
High91 °F (Jul 27, 11:53 AM)97% (Aug 2, 4:53 AM)30.13 "Hg (Aug 2, 4:53 AM)
Low74 °F (Aug 2, 4:53 AM)54% (Jul 27, 9:53 AM)29.94 "Hg (Aug 2, 4:53 PM)
Average84 °F72%30.03 "Hg
* Reported Jul 19 5:53 PM — Aug 3 5:53 PM, Christiansted, Weather by CustomWeather, © 2015

Note: Actual official high and low records may vary slightly from our data, if they occured in-between our weather recording intervals... More about our weather records

Advertising

Christiansted weather history for previous 24 hours

 ConditionsComfort  
Time TempWeatherWind HumidityBarometerVisibility
5:53 PM
Mon, Aug 3
85 °FPassing clouds.20 mph68%29.98 "Hg10 mi
4:53 PM88 °FSunny.20 mph63%29.98 "Hg10 mi
3:53 PM90 °FPassing clouds.20 mph57%29.98 "Hg10 mi
2:53 PM90 °FScattered clouds.24 mph59%29.99 "Hg10 mi
1:53 PM90 °FPassing clouds.21 mph59%30.00 "Hg10 mi
12:53 PM90 °FPassing clouds.20 mph59%30.02 "Hg10 mi
11:53 AM90 °FPassing clouds.20 mph59%30.03 "Hg10 mi
10:53 AM90 °FScattered clouds.20 mph59%30.02 "Hg10 mi
9:53 AM88 °FPassing clouds.18 mph59%30.02 "Hg10 mi
8:53 AM87 °FPassing clouds.18 mph63%30.01 "Hg10 mi
7:53 AM85 °FPassing clouds.20 mph65%30.01 "Hg10 mi
6:53 AM83 °FScattered clouds.15 mph72%30.00 "Hg10 mi
6:03 AM82 °FScattered clouds.17 mph74%29.99 "Hg10 mi
5:39 AM81 °FPartly cloudy.18 mph79%29.98 "Hg10 mi
4:53 AM81 °FPartly cloudy.16 mph77%29.98 "Hg10 mi
3:53 AM81 °FPassing clouds.12 mph77%29.98 "Hg10 mi
2:53 AM81 °FPassing clouds.13 mph77%29.96 "Hg10 mi
2:23 AM82 °FPassing clouds.17 mph72%29.98 "Hg10 mi
2:08 AM82 °FPassing clouds.17 mph77%29.98 "Hg10 mi
1:53 AM82 °FPassing clouds.20 mph74%29.97 "Hg10 mi
1:40 AM82 °FPassing clouds.18 mph74%29.98 "Hg10 mi
1:19 AM82 °FPassing clouds.16 mph79%29.98 "Hg10 mi
12:53 AM82 °FPassing clouds.13 mph77%29.99 "Hg10 mi
11:53 PM
Sun, Aug 2
82 °FMostly cloudy.12 mph79%30.00 "Hg10 mi
10:53 PM83 °FOvercast.16 mph77%30.01 "Hg10 mi
9:53 PM82 °FMostly cloudy.15 mph79%30.00 "Hg10 mi
8:53 PM81 °FPassing clouds.8 mph79%29.99 "Hg10 mi
7:53 PM82 °FPassing clouds.10 mph79%29.97 "Hg10 mi
7:07 PM83 °FPassing clouds.14 mph77%29.96 "Hg10 mi
Weather by CustomWeather, © 2015

See weather overviewHow to use our weather pages